Wind_Speed
5 7 11 15 19 23 29 33 35 37 38 40 42 42 44 46 47 48 48 48 48 46 44 42 40 39 37 35 33 32 32 33 35 35 36 35 35 36 35 34 33 32 31 30
4 4 8 13 18 20 26 31 32 34 36 38 40 41 41 45 47 47 47 46 46 45 44 42 39 38 37 36 35 34 33 33 34 34 35 35 36 37 37 35 34 33 33 32
3 3 4 9 15 18 22 27 30 32 35 36 37 38 41 42 44 45 46 44 44 45 44 42 41 39 37 36 34 34 35 34 34 33 35 36 36 36 37 37 36 35 34 34
3 2 0 4 9 14 17 23 28 31 33 34 35 36 38 39 41 44 44 43 42 42 43 41 41 39 38 37 37 36 35 34 34 34 33 34 34 34 35 36 35 36 35 36
4 3 2 2 6 10 14 19 24 27 30 32 32 32 35 34 37 41 42 41 39 40 41 40 40 39 38 37 37 37 36 36 35 36 36 35 35 35 35 35 35 36 36 37
4 5 4 4 7 9 11 17 20 22 26 28 28 29 29 31 34 36 39 40 37 37 39 39 39 39 39 38 38 37 37 37 36 37 37 37 36 36 35 36 36 37 38 38
5 5 5 5 6 8 11 16 18 19 21 23 25 26 24 26 30 32 34 37 36 36 36 37 38 39 38 38 38 37 38 38 38 38 38 38 38 38 38 38 39 39 39 39
5 4 4 5 6 8 11 13 15 16 18 19 20 21 20 21 27 29 31 34 34 33 34 35 37 37 37 37 37 37 37 38 38 38 39 39 39 39 40 41 41 41 40 40
5 4 4 4 5 8 10 11 11 12 14 16 18 18 18 20 24 27 29 31 33 33 32 33 35 36 37 36 37 37 37 37 37 37 38 38 39 39 40 41 42 43 43 42
4 3 4 4 4 6 7 9 10 10 11 13 14 16 17 18 21 24 26 28 32 33 32 32 33 36 37 37 37 37 37 37 37 37 37 38 39 40 40 41 42 43 44 44
3 3 3 4 4 5 6 7 7 8 9 11 12 14 16 17 18 19 22 26 29 31 32 33 33 34 36 37 37 37 38 39 38 38 38 39 40 40 41 42 43 43 44 45
2 3 4 4 4 4 5 5 6 7 9 11 11 13 15 16 17 19 21 24 27 28 31 33 33 35 36 37 38 39 39 40 41 40 40 41 41 42 43 43 44 45 45 46
2 3 3 3 3 3 4 4 5 6 8 10 11 12 14 16 18 19 20 23 26 28 29 31 33 35 37 38 39 41 42 43 44 44 44 44 44 45 45 45 45 46 46 47
2 2 2 2 2 2 3 4 4 5 7 8 10 11 13 16 19 21 22 24 26 28 30 32 34 36 38 40 41 43 44 45 45 46 46 46 46 46 46 46 46 46 47 47
4 3 3 3 2 2 3 4 5 6 7 9 10 11 13 16 18 21 24 26 28 30 31 34 35 37 39 41 42 44 45 46 46 47 47 47 47 47 47 46 46 47 47 47
6 5 5 5 5 5 5 6 6 7 9 10 12 13 15 17 19 21 24 26 29 31 33 34 36 38 39 41 43 44 45 46 47 47 48 47 47 47 47 47 47 46 46 46
7 7 7 7 7 8 8 9 10 11 12 13 14 16 18 19 21 23 25 27 29 31 33 35 37 39 41 42 43 44 45 46 47 47 48 48 47 47 47 47 47 47 46 46
6 8 9 9 10 10 11 12 13 13 14 16 17 19 21 22 24 26 28 30 32 33 35 37 39 40 42 43 44 45 46 46 47 47 48 48 48 48 48 47 47 47 46 46
5 7 8 9 10 11 12 13 14 16 17 19 20 22 24 25 27 29 31 32 34 35 37 38 40 41 42 43 44 45 46 47 47 47 47 47 47 47 47 47 47 47 47 46
4 6 8 9 11 12 12 14 16 17 18 20 22 24 26 27 29 31 33 34 36 37 39 40 41 42 43 44 45 45 46 46 47 47 47 47 47 46 46 46 46 46 46 45
3 4 6 8 9 10 13 15 16 18 19 21 23 25 27 28 30 32 34 36 38 39 40 41 42 43 44 45 46 46 46 47 47 47 47 47 47 46 46 46 45 45 45 44
5 5 5 7 9 10 13 15 16 18 20 22 24 26 28 30 32 33 35 37 38 40 41 42 43 44 45 45 46 46 46 46 46 46 46 46 46 46 46 45 45 44 44 44
6 7 7 8 9 11 13 15 17 20 22 24 26 28 30 32 34 36 38 39 41 42 42 43 44 44 45 46 46 46 46 46 46 46 46 45 45 45 45 45 44 44 44 43
7 8 9 10 11 13 15 17 19 21 23 26 28 30 32 34 36 37 39 41 43 45 46 46 47 47 47 47 47 46 46 46 46 46 46 46 45 44 44 44 44 43 43 42
10 11 12 13 14 16 17 19 21 23 25 27 29 32 34 36 38 39 41 42 44 46 48 48 49 49 49 48 48 47 46 46 45 45 44 45 45 45 44 43 43 42 42 42
12 13 15 16 18 19 20 22 24 26 28 30 32 34 36 38 39 41 42 43 45 46 47 49 49 49 49 49 49 48 48 47 46 45 44 43 43 43 43 43 42 42 42 41
Wind_Direction
290 259 234 230 223 217 213 213 212 211 213 215 214 213 211 213 213 212 211 214 217 220 223 224 225 225 225 227 226 225 225 225 225 226 228 229 231 231 233 235 237 239 243 246
328 284 232 224 218 216 211 209 209 210 211 213 214 214 212 212 213 214 212 213 217 220 223 225 228 229 229 230 231 230 230 230 230 231 233 232 233 234 235 237 239 241 244 248
343 313 232 218 220 217 209 209 209 210 208 211 213 214 213 213 214 213 212 213 217 221 224 225 228 230 232 234 236 236 235 235 235 238 238 237 238 239 239 240 242 244 247 251
14 8 235 201 205 206 205 205 208 209 211 214 215 217 215 216 216 215 214 216 218 220 223 226 230 233 235 237 239 240 240 240 239 239 239 240 241 242 243 243 246 248 251 253
20 29 50 146 179 190 195 197 199 204 208 213 216 220 217 219 219 219 219 218 219 220 222 226 230 232 234 236 239 241 242 242 241 241 241 241 244 246 248 248 250 253 255 256
33 54 79 124 156 175 182 185 188 197 206 214 218 221 220 222 221 221 221 220 221 223 225 227 228 230 234 236 239 241 241 242 243 243 244 245 247 250 251 251 253 256 258 259
60 76 81 92 135 162 171 175 184 193 204 212 217 222 224 225 223 222 223 223 223 225 225 228 229 231 234 236 239 240 241 242 242 244 245 247 249 250 252 253 255 257 260 262
59 92 92 104 124 147 160 174 186 197 208 214 218 222 224 226 223 224 227 225 223 223 225 229 230 231 233 236 239 240 242 242 242 244 246 248 249 251 253 255 257 259 261 263
75 88 118 123 135 146 157 168 179 192 202 211 217 223 226 225 225 226 228 226 224 225 227 228 229 231 234 236 238 240 242 244 245 246 248 249 250 252 254 255 257 259 261 263
87 98 120 136 143 162 166 173 186 192 196 204 212 219 222 223 225 228 229 227 226 228 229 231 233 235 237 238 239 240 242 244 247 248 250 251 252 253 255 257 258 261 263 265
86 102 126 134 149 160 174 182 195 205 210 212 217 219 223 227 228 230 231 231 230 233 236 236 237 240 240 239 240 241 243 245 247 249 252 253 254 255 256 258 260 262 263 265
99 120 130 135 143 156 176 184 198 207 216 220 222 221 223 227 231 233 235 235 235 237 240 241 242 242 243 243 244 245 247 248 249 250 253 254 255 256 258 260 262 263 264 265
120 141 158 159 172 178 181 185 187 203 214 221 226 227 229 231 233 236 238 237 237 240 241 242 244 244 245 246 247 248 250 251 252 253 254 255 256 257 259 260 262 263 265 267
153 159 171 180 188 193 187 199 203 211 218 224 228 233 233 234 235 237 240 240 241 242 243 243 244 245 246 248 249 250 252 253 254 255 256 257 258 259 260 261 262 263 265 267
202 207 208 214 220 213 218 233 236 234 234 233 233 236 240 241 241 242 243 243 243 245 246 246 245 246 247 248 250 251 252 254 255 255 256 257 258 259 260 261 262 264 265 267
216 225 232 236 239 241 245 253 254 252 248 243 242 243 245 246 247 248 248 248 248 249 248 248 247 248 249 250 251 252 253 254 255 256 257 258 258 259 260 261 262 263 265 266
232 235 242 247 252 253 255 259 261 261 259 257 256 254 253 253 253 253 253 254 254 254 253 252 252 252 252 252 253 253 254 255 256 256 257 258 258 259 260 260 261 263 265 266
246 247 248 251 257 261 261 262 264 263 263 263 262 261 261 259 258 259 258 259 259 259 258 258 257 257 256 256 255 255 256 256 257 257 258 258 259 259 259 260 261 262 264 265
255 260 260 260 260 259 264 265 266 266 267 268 267 267 266 266 265 263 263 263 263 262 262 261 261 260 260 260 259 259 258 258 258 258 259 259 259 260 260 260 261 262 263 264
274 268 269 270 270 269 269 271 271 272 273 273 272 270 270 269 268 267 266 266 266 266 265 264 264 263 262 262 262 261 261 260 260 259 259 259 259 259 260 260 260 261 262 264
329 303 290 284 281 278 277 277 278 277 278 276 275 275 274 274 273 271 270 269 269 269 268 267 267 266 265 264 263 263 262 262 262 261 261 260 260 260 260 260 260 261 261 263
357 337 318 304 296 288 285 284 283 282 282 282 282 281 280 279 277 276 274 273 272 272 271 270 269 269 268 267 265 265 264 263 262 262 261 260 260 260 259 259 259 259 260 261
353 343 330 318 309 301 294 291 289 289 288 288 287 286 285 284 282 280 278 276 274 273 272 271 271 270 270 269 268 266 265 264 263 262 261 260 259 259 258 257 258 258 259 260
338 336 328 318 312 306 303 300 297 296 295 294 292 290 289 287 286 284 282 279 277 274 273 272 272 271 271 271 269 268 266 264 263 262 261 260 259 257 256 256 256 257 257 258
327 325 323 318 315 311 308 305 303 301 300 298 296 295 293 291 289 288 286 282 279 277 274 273 272 272 271 270 269 268 266 265 263 261 260 259 258 256 255 255 255 255 255 256
320 320 318 316 315 312 310 308 306 304 302 301 299 297 296 295 293 292 290 287 284 281 277 274 273 273 271 270 269 268 266 264 263 261 259 258 257 256 254 253 253 253 253 254
Height
5583 5584 5584 5585 5587 5591 5596 5602 5609 5617 5624 5631 5639 5648 5657 5664 5672 5680 5688 5696 5703 5710 5716 5723 5729 5735 5740 5746 5752 5757 5762 5768 5772 5776 5780 5784 5788 5791 5794 5796 5798 5801 5803 5805
5585 5584 5583 5584 5586 5590 5594 5600 5607 5615 5621 5628 5636 5645 5653 5660 5667 5675 5682 5690 5698 5705 5712 5718 5724 5729 5735 5740 5746 5751 5756 5760 5765 5770 5774 5777 5781 5784 5787 5789 5792 5794 5796 5798
5586 5585 5583 5584 5586 5589 5594 5600 5606 5613 5619 5626 5634 5642 5649 5657 5663 5670 5678 5685 5693 5700 5707 5713 5719 5724 5729 5734 5739 5745 5749 5754 5758 5762 5766 5770 5773 5776 5779 5782 5785 5787 5788 5790
5587 5586 5585 5585 5587 5589 5594 5599 5605 5612 5618 5625 5633 5640 5648 5654 5660 5667 5675 5682 5689 5696 5702 5708 5713 5719 5724 5729 5733 5738 5742 5747 5751 5755 5758 5761 5765 5768 5770 5774 5777 5779 5780 5782
5590 5589 5588 5588 5590 5591 5595 5599 5605 5611 5618 5625 5632 5639 5647 5651 5658 5665 5672 5679 5685 5691 5697 5702 5708 5713 5718 5723 5728 5732 5736 5740 5744 5748 5751 5754 5758 5761 5763 5766 5768 5770 5772 5774
5593 5592 5592 5592 5593 5595 5597 5601 5606 5612 5619 5626 5632 5638 5645 5650 5656 5662 5668 5675 5680 5686 5691 5697 5702 5708 5712 5717 5721 5725 5729 5733 5737 5740 5743 5746 5749 5752 5755 5758 5760 5761 5763 5765
5596 5595 5595 5596 5597 5598 5601 5605 5610 5614 5620 5626 5632 5637 5644 5648 5653 5659 5664 5670 5676 5681 5686 5692 5697 5702 5706 5711 5714 5718 5722 5726 5730 5733 5735 5738 5741 5744 5747 5749 5751 5753 5755 5756
5599 5599 5599 5599 5601 5602 5604 5609 5614 5618 5621 5626 5631 5636 5642 5646 5651 5655 5660 5665 5671 5676 5681 5686 5691 5696 5700 5704 5708 5712 5715 5719 5722 5725 5727 5730 5733 5736 5738 5740 5742 5744 5745 5746
5602 5602 5602 5603 5604 5606 5608 5611 5616 5619 5622 5627 5631 5636 5641 5644 5649 5653 5658 5662 5667 5672 5677 5681 5685 5690 5694 5698 5701 5705 5708 5711 5714 5717 5719 5722 5724 5727 5729 5731 5733 5735 5736 5737
5604 5605 5605 5605 5607 5609 5611 5614 5617 5620 5623 5627 5631 5635 5639 5643 5647 5651 5655 5659 5663 5668 5672 5676 5680 5684 5687 5691 5695 5698 5701 5703 5706 5709 5711 5713 5715 5718 5720 5722 5723 5725 5726 5727
5605 5607 5607 5608 5609 5611 5613 5616 5618 5621 5624 5627 5631 5636 5638 5641 5645 5648 5652 5656 5660 5664 5667 5671 5674 5677 5681 5684 5687 5690 5693 5695 5698 5700 5703 5705 5707 5709 5710 5712 5713 5715 5716 5717
5607 5608 5609 5610 5611 5612 5614 5616 5619 5622 5624 5627 5630 5637 5636 5639 5642 5646 5649 5653 5656 5659 5662 5665 5668 5671 5674 5677 5679 5682 5685 5687 5689 5691 5694 5696 5697 5699 5700 5702 5703 5704 5705 5706
5608 5610 5611 5612 5615 5615 5615 5617 5619 5621 5624 5626 5629 5635 5634 5637 5640 5643 5646 5648 5651 5654 5657 5659 5661 5664 5667 5669 5671 5673 5675 5678 5680 5682 5684 5686 5687 5689 5690 5691 5692 5693 5694 5695
5609 5611 5612 5614 5614 5615 5616 5618 5619 5621 5623 5625 5628 5631 5632 5634 5636 5639 5641 5644 5646 5648 5650 5652 5654 5656 5658 5660 5662 5663 5665 5667 5669 5671 5673 5675 5676 5678 5679 5680 5681 5682 5683 5684
5610 5611 5612 5613 5614 5615 5616 5618 5619 5621 5622 5624 5626 5628 5629 5631 5632 5634 5636 5638 5639 5641 5642 5644 5646 5647 5649 5651 5652 5654 5655 5657 5658 5660 5662 5663 5665 5666 5667 5668 5670 5671 5671 5672
5610 5611 5612 5613 5614 5615 5616 5617 5619 5620 5621 5622 5624 5625 5626 5627 5628 5629 5630 5631 5632 5634 5635 5636 5637 5638 5639 5641 5642 5643 5644 5646 5647 5649 5650 5651 5653 5654 5655 5657 5658 5659 5660 5661
5609 5611 5612 5613 5614 5615 5616 5617 5617 5618 5619 5620 5621 5623 5622 5623 5623 5624 5625 5625 5626 5626 5627 5627 5628 5629 5630 5630 5631 5633 5634 5635 5636 5637 5638 5640 5641 5642 5644 5645 5646 5647 5648 5649
5609 5610 5611 5612 5613 5614 5616 5614 5615 5615 5616 5616 5617 5617 5617 5618 5618 5618 5618 5618 5618 5618 5618 5618 5618 5618 5619 5620 5620 5621 5622 5623 5624 5625 5626 5627 5628 5630 5631 5633 5634 5635 5637 5638
5608 5609 5609 5610 5610 5611 5612 5612 5611 5612 5612 5612 5612 5612 5612 5611 5611 5611 5610 5610 5609 5609 5608 5608 5607 5607 5607 5608 5608 5609 5609 5610 5611 5612 5613 5614 5616 5617 5619 5620 5621 5623 5624 5626
5607 5607 5608 5608 5608 5609 5610 5609 5608 5609 5608 5608 5606 5606 5605 5604 5604 5603 5601 5600 5599 5598 5597 5597 5596 5595 5595 5595 5595 5596 5596 5597 5598 5599 5600 5601 5603 5604 5606 5607 5609 5610 5612 5613
5606 5606 5606 5605 5605 5606 5606 5605 5605 5605 5605 5602 5600 5599 5598 5596 5596 5594 5592 5590 5589 5587 5586 5585 5584 5583 5582 5582 5582 5583 5583 5583 5584 5585 5586 5588 5589 5591 5592 5594 5596 5597 5599 5600
5606 5605 5604 5603 5603 5605 5601 5600 5600 5600 5597 5596 5594 5592 5590 5588 5586 5584 5582 5579 5577 5575 5574 5572 5571 5570 5569 5568 5569 5569 5569 5570 5570 5571 5572 5574 5575 5577 5579 5581 5583 5584 5586 5588
5605 5604 5603 5602 5603 5599 5597 5596 5595 5593 5591 5589 5587 5584 5582 5579 5576 5573 5571 5568 5566 5563 5561 5559 5558 5557 5556 5555 5554 5555 5555 5555 5556 5557 5558 5560 5561 5563 5565 5567 5569 5571 5573 5575
5604 5602 5601 5599 5598 5596 5593 5591 5589 5587 5584 5582 5579 5576 5573 5569 5566 5562 5559 5555 5552 5549 5547 5546 5544 5543 5542 5540 5539 5540 5540 5541 5541 5543 5544 5545 5547 5549 5551 5553 5556 5558 5560 5562
5602 5600 5598 5596 5594 5592 5589 5587 5584 5581 5577 5574 5571 5567 5562 5558 5554 5550 5546 5542 5538 5534 5532 5530 5529 5528 5526 5525 5525 5524 5525 5525 5527 5528 5529 5531 5533 5535 5537 5539 5542 5544 5547 5549
5600 5598 5596 5594 5591 5588 5585 5581 5578 5574 5570 5566 5562 5557 5552 5547 5542 5537 5532 5527 5523 5519 5515 5514 5512 5511 5510 5509 5509 5508 5508 5510 5511 5513 5515 5516 5518 5520 5523 5526 5529 5531 5534 5536